EW6393 Weather Reports


Display with metric or nautical units.
time (UTC)temp
F
wind
direction
speed
MPH
gust
MPH
rain 1hr
in
rain 24hr
in
rain mn
in
humidity
%
barometer
mb
20260504060129 62 255 0.0 2.0 0.00 0.00 0.00 24 1009.9
20260504050645 61 90 1.0 2.0 0.00 0.00 0.00 27 1010.4
20260504050126 61 98 1.0 2.0 0.00 0.00 0.00 28 1010.4
20260504045612 61 65 1.0 2.0 0.00 0.00 0.00 29 1010.5
20260504045112 62 70 0.0 1.0 0.00 0.00 0.00 27 1010.6
20260504044620 63 70 0.0 1.0 0.00 0.00 0.00 25 1010.6
20260504044122 63 70 0.0 1.0 0.00 0.00 0.00 24 1010.6
20260504043631 63 70 0.0 2.0 0.00 0.00 0.00 27 1010.6
20260504043112 63 70 1.0 2.0 0.00 0.00 0.00 25 1010.5
20260504042614 63 70 0.0 2.0 0.00 0.00 0.00 25 1010.5
20260504042115 63 150 0.0 1.0 0.00 0.00 0.00 27 1010.5
20260504041623 63 150 0.0 1.0 0.00 0.00 0.00 26 1010.5
20260504041144 64 150 0.0 1.0 0.00 0.00 0.00 25 1010.5
20260504040611 63 150 0.0 1.0 0.00 0.00 0.00 25 1010.6
20260504040158 63 151 0.0 1.0 0.00 0.00 0.00 25 1010.5
20260504035618 64 151 0.0 1.0 0.00 0.00 0.00 25 1010.5
20260504035118 64 150 0.0 2.0 0.00 0.00 0.00 26 1010.5
20260504034627 64 70 0.0 3.0 0.00 0.00 0.00 25 1010.4
20260504034148 64 270 0.0 3.0 0.00 0.00 0.00 25 1010.4
20260504033635 65 301 1.0 2.0 0.00 0.00 0.00 24 1010.4
20260504033137 65 141 0.0 1.0 0.00 0.00 0.00 23 1010.4
20260504032643 65 164 0.0 4.0 0.00 0.00 0.00 23 1010.4
20260504032151 65 164 0.0 4.0 0.00 0.00 0.00 22 1010.4
20260504031630 66 316 0.0 4.0 0.00 0.00 0.00 23 1010.4
20260504031131 66 309 1.0 4.0 0.00 0.00 0.00 22 1010.4
20260504030639 65 345 0.0 2.0 0.00 0.00 0.00 22 1010.4
20260504030119 66 53 0.0 4.0 0.00 0.00 0.00 23 1010.4
20260504025627 66 74 1.0 4.0 0.00 0.00 0.00 21 1010.4
20260504025127 65 53 1.0 2.0 0.00 0.00 0.00 22 1010.3
20260504024629 65 57 1.0 2.0 0.00 0.00 0.00 22 1010.3
20260504024138 65 57 0.0 2.0 0.00 0.00 0.00 24 1010.3
20260504023645 66 86 0.0 0.0 0.00 0.00 0.00 22 1010.3
20260504023125 66 86 0.0 0.0 0.00 0.00 0.00 23 1010.3
20260504022626 67 86 0.0 2.0 0.00 0.00 0.00 22 1010.3
20260504022133 67 75 1.0 2.0 0.00 0.00 0.00 22 1010.3
20260504021635 68 66 0.0 2.0 0.00 0.00 0.00 22 1010.3
20260504021115 68 90 1.0 4.0 0.00 0.00 0.00 21 1010.3
20260504020623 68 56 1.0 4.0 0.00 0.00 0.00 21 1010.3
20260504020124 68 89 1.0 3.0 0.00 0.00 0.00 21 1010.3
20260504015632 69 61 1.0 2.0 0.00 0.00 0.00 22 1010.3
20260504015114 69 80 0.0 1.0 0.00 0.00 0.00 24 1010.3
20260504014615 69 82 0.0 1.0 0.00 0.00 0.00 22 1010.3
20260504014122 69 317 0.0 1.0 0.00 0.00 0.00 22 1010.4
20260504013624 70 316 0.0 0.0 0.00 0.00 0.00 23 1010.5
20260504013152 70 317 0.0 0.0 0.00 0.00 0.00 21 1010.6
20260504012612 71 317 0.0 0.0 0.00 0.00 0.00 21 1010.6
20260504012130 71 316 0.0 0.0 0.00 0.00 0.00 20 1010.6
20260504011638 71 317 0.0 1.0 0.00 0.00 0.00 19 1010.6
20260504011118 72 317 0.0 1.0 0.00 0.00 0.00 19 1010.6
20260504010618 72 311 0.0 1.0 0.00 0.00 0.00 20 1010.7
20260504010126 72 324 0.0 4.0 0.00 0.00 0.00 18 1010.7
20260504005654 72 21 1.0 4.0 0.00 0.00 0.00 18 1010.8
20260504005113 73 296 1.0 3.0 0.00 0.00 0.00 18 1010.8
20260504004613 73 314 1.0 6.0 0.00 0.00 0.00 17 1010.9
20260504004121 73 295 3.0 6.0 0.00 0.00 0.00 16 1010.9
20260504003621 73 293 1.0 5.0 0.00 0.00 0.00 18 1010.9
20260504003129 73 281 2.0 5.0 0.00 0.00 0.00 17 1010.9
20260504002629 73 339 2.0 6.0 0.00 0.00 0.00 16 1011.0
20260504002137 73 318 1.0 6.0 0.00 0.00 0.00 16 1011.0
20260504001618 74 275 3.0 7.0 0.00 0.00 0.00 16 1011.0
20260504001120 74 330 2.0 4.0 0.00 0.00 0.00 16 1011.0
20260504000621 74 233 1.0 6.0 0.00 0.00 0.00 17 1010.9
20260504000128 74 344 2.0 7.0 0.00 0.00 0.00 16 1011.0
20260503235629 74 302 3.0 6.0 0.00 0.00 0.00 16 1011.0
20260503235137 74 293 3.0 5.0 0.00 0.00 0.00 14 1011.0
20260503234619 74 309 2.0 5.0 0.00 0.00 0.00 16 1011.0
20260503234120 74 297 2.0 5.0 0.00 0.00 0.00 14 1011.1
20260503233648 74 283 3.0 5.0 0.00 0.00 0.00 14 1011.1
20260503233129 75 303 0.0 4.0 0.00 0.00 0.00 15 1011.2
20260503232637 75 248 2.0 4.0 0.00 0.00 0.00 13 1011.3
20260503232117 75 286 1.0 5.0 0.00 0.00 0.00 15 1011.2
20260503231618 75 285 3.0 9.0 0.00 0.00 0.00 14 1011.2
20260503231119 75 250 4.0 9.0 0.00 0.00 0.00 14 1011.3
20260503230626 75 288 4.0 8.0 0.00 0.00 0.00 14 1011.3
20260503230126 75 234 3.0 6.0 0.00 0.00 0.00 14 1011.3
20260503225634 76 349 1.0 4.0 0.00 0.00 0.00 15 1011.5
20260503225136 76 319 1.0 5.0 0.00 0.00 0.00 14 1011.6
20260503224623 76 15 2.0 5.0 0.00 0.00 0.00 15 1011.6
20260503224124 76 2 1.0 5.0 0.00 0.00 0.00 14 1011.7
20260503223632 76 18 1.0 5.0 0.00 0.00 0.00 14 1011.8
20260503223113 75 31 1.0 3.0 0.00 0.00 0.00 14 1011.9
20260503222614 75 320 1.0 6.0 0.00 0.00 0.00 15 1011.9
20260503222121 75 281 2.0 6.0 0.00 0.00 0.00 14 1012.0
20260503221643 76 266 3.0 5.0 0.00 0.00 0.00 15 1012.0
20260503221151 76 319 2.0 7.0 0.00 0.00 0.00 14 1012.2
20260503220637 76 305 2.0 7.0 0.00 0.00 0.00 15 1012.3
20260503220117 77 356 1.0 5.0 0.00 0.00 0.00 15 1012.4
20260503215618 77 318 2.0 5.0 0.00 0.00 0.00 14 1012.6
20260503215126 77 340 1.0 3.0 0.00 0.00 0.00 15 1012.7
20260503214627 78 281 1.0 3.0 0.00 0.00 0.00 15 1012.8
20260503214127 77 257 0.0 3.0 0.00 0.00 0.00 15 1012.9
20260503213636 77 191 1.0 4.0 0.00 0.00 0.00 16 1013.0
20260503213116 76 183 2.0 4.0 0.00 0.00 0.00 15 1013.1
20260503212617 76 87 2.0 4.0 0.00 0.00 0.00 15 1013.1
20260503212118 76 181 0.0 4.0 0.00 0.00 0.00 14 1013.2
20260503211624 75 252 2.0 9.0 0.00 0.00 0.00 14 1013.3
20260503211126 76 217 4.0 9.0 0.00 0.00 0.00 15 1013.4
20260503210633 77 279 1.0 5.0 0.00 0.00 0.00 15 1013.5
20260503210120 77 188 1.0 4.0 0.00 0.00 0.00 14 1013.5
20260503205620 77 31 1.0 5.0 0.00 0.00 0.00 16 1013.7
20260503205121 78 276 1.0 7.0 0.00 0.00 0.00 14 1013.7
20260503204629 79 207 3.0 7.0 0.00 0.00 0.00 14 1013.7
20260503204130 79 191 3.0 6.0 0.00 0.00 0.00 14 1013.7
20260503203611 79 256 1.0 6.0 0.00 0.00 0.00 13 1013.7
20260503203119 78 221 3.0 6.0 0.00 0.00 0.00 14 1013.8
20260503202620 77 85 2.0 7.0 0.00 0.00 0.00 15 1013.8
20260503202128 76 49 2.0 7.0 0.00 0.00 0.00 13 1014.0
20260503201629 76 286 2.0 7.0 0.00 0.00 0.00 14 1014.1
20260503201130 75 29 1.0 4.0 0.00 0.00 0.00 15 1014.2
20260503200638 74 276 2.0 4.0 0.00 0.00 0.00 13 1014.4
20260503200118 74 229 1.0 2.0 0.00 0.00 0.00 14 1014.4
20260503195618 74 155 0.0 3.0 0.00 0.00 0.00 14 1014.5
20260503195126 74 245 1.0 3.0 0.00 0.00 0.00 15 1014.6
20260503194627 74 246 1.0 5.0 0.00 0.00 0.00 15 1014.7
20260503194129 74 227 2.0 5.0 0.00 0.00 0.00 14 1014.7
20260503193636 75 148 1.0 4.0 0.00 0.00 0.00 15 1014.8
20260503193118 75 141 1.0 5.0 0.00 0.00 0.00 16 1014.9
20260503192625 75 205 1.0 5.0 0.00 0.00 0.00 17 1014.9
20260503192147 75 225 1.0 5.0 0.00 0.00 0.00 16 1015.0
20260503191634 75 174 1.0 4.0 0.00 0.00 0.00 15 1015.0
20260503191116 75 239 1.0 5.0 0.00 0.00 0.00 16 1015.1
20260503190615 75 212 1.0 7.0 0.00 0.00 0.00 16 1015.2
20260503190142 75 283 4.0 7.0 0.00 0.00 0.00 16 1015.1
20260503185650 76 223 2.0 7.0 0.00 0.00 0.00 16 1015.3
20260503185158 76 207 1.0 5.0 0.00 0.00 0.00 17 1015.3
20260503184618 76 145 2.0 5.0 0.00 0.00 0.00 15 1015.3
20260503184138 77 261 2.0 5.0 0.00 0.00 0.00 16 1015.4
20260503183645 76 213 2.0 5.0 0.00 0.00 0.00 14 1015.5
20260503183134 76 207 2.0 6.0 0.00 0.00 0.00 16 1015.6
20260503182614 76 153 2.0 6.0 0.00 0.00 0.00 18 1015.6
20260503182115 75 165 3.0 5.0 0.00 0.00 0.00 18 1015.7
20260503181622 75 77 3.0 4.0 0.00 0.00 0.00 17 1015.8
20260503181123 75 274 1.0 3.0 0.00 0.00 0.00 18 1015.9
20260503180651 75 224 1.0 3.0 0.00 0.00 0.00 22 1016.0
20260503180111 74 209 1.0 5.0 0.00 0.00 0.00 23 1016.0
20260503175618 73 27 1.0 5.0 0.00 0.00 0.00 20 1016.1
20260503175119 73 219 1.0 4.0 0.00 0.00 0.00 19 1016.1
20260503174617 73 349 1.0 7.0 0.00 0.00 0.00 21 1016.2
20260503174125 72 231 2.0 7.0 0.00 0.00 0.00 23 1016.2
20260503173627 72 243 2.0 4.0 0.00 0.00 0.00 21 1016.3
20260503173114 72 122 2.0 4.0 0.00 0.00 0.00 20 1016.3
20260503172615 72 158 1.0 3.0 0.00 0.00 0.00 21 1016.4
20260503172123 71 161 1.0 3.0 0.00 0.00 0.00 18 1016.5
20260503171619 71 134 1.0 3.0 0.00 0.00 0.00 20 1016.5
20260503171124 70 128 1.0 3.0 0.00 0.00 0.00 20 1016.5
20260503170652 70 269 1.0 3.0 0.00 0.00 0.00 21 1016.5
20260503170111 70 103 0.0 4.0 0.00 0.00 0.00 22 1016.5
20260503160134 68 311 0.0 3.0 0.00 0.00 0.00 24 1016.8
20260503150634 62 129 0.0 2.0 0.00 0.00 0.00 31 1017.2
20260503150113 62 58 1.0 2.0 0.00 0.00 0.00 30 1017.2
20260503140122 56 25 0.0 1.0 0.00 0.00 0.00 34 1016.9
20260503131130 52 70 0.0 2.0 0.00 0.00 0.00 39 1016.4
20260503130611 52 70 1.0 2.0 0.00 0.00 0.00 39 1016.5
20260503130119 52 70 1.0 2.0 0.00 0.00 0.00 39 1016.6
20260503120119 53 68 1.0 2.0 0.00 0.00 0.00 36 1016.5
20260503110635 56 66 0.0 2.0 0.00 0.00 0.00 32 1016.8
20260503110122 56 66 1.0 2.0 0.00 0.00 0.00 31 1016.9
20260503100150 56 64 0.0 1.0 0.00 0.00 0.00 33 1016.9
20260503090150 57 76 0.0 2.0 0.00 0.00 0.00 29 1017.0
20260503081617 54 81 1.0 1.0 0.00 0.00 0.00 33 1017.2
20260503081118 55 82 1.0 1.0 0.00 0.00 0.00 34 1017.2
20260503080625 55 82 0.0 1.0 0.00 0.00 0.00 34 1017.2
20260503080127 54 86 1.0 1.0 0.00 0.00 0.00 33 1017.1
20260503072617 57 66 1.0 2.0 0.00 0.00 0.00 30 1017.2
20260503072145 57 68 1.0 2.0 0.00 0.00 0.00 30 1017.2
20260503071652 57 81 0.0 2.0 0.00 0.00 0.00 29 1017.1
20260503071112 57 94 1.0 2.0 0.00 0.00 0.00 30 1017.1
20260503070613 57 60 0.0 2.0 0.00 0.00 0.00 29 1017.1
20260503070140 57 60 1.0 2.0 0.00 0.00 0.00 30 1017.1